Weather History for Bluefield, WV

Change the Weather History Date:

Monday, January 13, 2014

  Actual Average Record
Temperature  
Mean Temperature 49 °F 34 °F  
Max Temperature 55 °F 42 °F 69 °F (2013)
Min Temperature 42 °F 26 °F 3 °F (1997)
Degree Days  
Heating Degree Days 16 31  
Month to date heating degree days 408 403  
Since 1 July heating degree days 2105 2168  
Cooling Degree Days 0 0  
Month to date cooling degree days 0 0  
Year to date cooling degree days 0 0  
Moisture  
Dew Point 23 °F    
Average Humidity 45    
Maximum Humidity 61    
Minimum Humidity 28    
Precipitation  
Precipitation T in 0.10 in 0.82 in (1968)
Month to date precipitation 1.12 1.23  
Year to date precipitation 1.12 1.23  
Snow  
Snow 0.00 in - - ()
Month to date snowfall 3.7  
Since 1 July snowfall 8.0  
Snow Depth 0.00 in    
Sea Level Pressure  
Sea Level Pressure 29.94 in    
Wind  
Wind Speed 6 mph (SSW)    
Max Wind Speed 16 mph    
Max Gust Speed 24 mph    
Visibility 10 miles    
Events Rain    
T = Trace of Precipitation, MM = Missing Value Source: NWS Daily Summary

Daily Weather History Graph

Daily Weather History Graph

Search for Another Location

Airport:

Trip Planner

Search our weather history database for the weather conditions in past years. The results will help you decide how hot, cold, wet, or windy it might be!

Date:

Astronomy

Jan. 13, 2014 Rise Set
Actual Time 7:38 AM EST 5:29 PM EST
Civil Twilight 7:09 AM EST 5:57 PM EST
Nautical Twilight 6:37 AM EST 6:29 PM EST
Astronomical Twilight 6:06 AM EST 7:01 PM EST
Moon 3:42 PM EST (1/13) 5:26 AM EST (1/13)
Length of Visible Light 10h 47m
Length of Day
9h 50m
Waxing Gibbous, 95% of the Moon is Illuminated
Jan 13
Waxing Gibbous
Jan 15
Full
Jan 24
Last Quarter
Jan 30
New
Feb 6
First Quarter

Hourly Weather History & Observations

Time (EST) Temp. Windchill Dew Point Humidity Pressure Visibility Wind Dir Wind Speed Gust Speed Precip Events Conditions
12:52 AM 45.0 °F 43.5 °F 17.1 °F 33% 30.04 in 10.0 mi SSW 3.5 mph - N/A   Clear
1:52 AM 44.1 °F - 18.0 °F 35% 30.03 in 10.0 mi Calm Calm - N/A   Clear
2:52 AM 44.1 °F 42.5 °F 18.0 °F 35% 30.02 in 10.0 mi SSW 3.5 mph - N/A   Clear
3:52 AM 46.0 °F - 16.0 °F 30% 30.01 in 10.0 mi Calm Calm - N/A   Clear
4:52 AM 46.9 °F - 15.1 °F 28% 30.01 in 10.0 mi Calm Calm - N/A   Clear
5:52 AM 45.0 °F - 15.1 °F 30% 30.02 in 10.0 mi Calm Calm - N/A   Clear
6:52 AM 44.1 °F 42.5 °F 16.0 °F 32% 30.04 in 10.0 mi WSW 3.5 mph - N/A   Clear
7:52 AM 46.0 °F 41.4 °F 18.0 °F 33% 30.02 in 10.0 mi SW 9.2 mph - N/A   Clear
8:52 AM 46.9 °F - 21.0 °F 36% 29.99 in 10.0 mi WSW 6.9 mph - N/A   Clear
9:52 AM 48.0 °F - 21.9 °F 36% 30.01 in 10.0 mi Calm Calm - N/A   Clear
10:52 AM 48.9 °F - 23.0 °F 36% 30.01 in 10.0 mi WSW 5.8 mph - N/A   Clear
11:52 AM 50.0 °F - 24.1 °F 36% 29.95 in 10.0 mi NW 3.5 mph - N/A   Clear
12:52 PM 50.0 °F - 26.1 °F 39% 29.89 in 10.0 mi ENE 4.6 mph - N/A   Scattered Clouds
1:52 PM 54.0 °F - 21.0 °F 28% 29.91 in 10.0 mi SSW 10.4 mph - N/A   Clear
2:52 PM 54.0 °F - 23.0 °F 30% 29.88 in 10.0 mi SSE 4.6 mph - N/A   Clear
3:52 PM 53.1 °F - 24.1 °F 32% 29.88 in 10.0 mi West 5.8 mph - N/A   Overcast
4:52 PM 52.0 °F - 25.0 °F 35% 29.89 in 10.0 mi SSW 5.8 mph - N/A   Overcast
5:52 PM 51.1 °F - 24.1 °F 35% 29.90 in 10.0 mi South 5.8 mph - N/A   Overcast
6:52 PM 48.9 °F - 28.9 °F 46% 29.89 in 10.0 mi South 10.4 mph - 0.00 in Rain Light Rain
7:52 PM 46.9 °F - 30.9 °F 54% 29.86 in 10.0 mi SE 10.4 mph 23.0 mph 0.00 in Rain Light Rain
8:52 PM 46.9 °F - 30.9 °F 54% 29.84 in 10.0 mi South 13.8 mph 23.0 mph 0.00 in   Overcast
9:52 PM 48.0 °F - 34.0 °F 58% 29.84 in 10.0 mi South 12.7 mph 18.4 mph 0.00 in   Overcast
10:52 PM 48.0 °F - 35.1 °F 61% 29.81 in 10.0 mi SSW 10.4 mph 20.7 mph 0.00 in   Overcast
11:52 PM 48.0 °F - 35.1 °F 61% 29.80 in 10.0 mi South 11.5 mph 17.3 mph N/A   Overcast